When you browse on this site, cookies collect data to enhance your experience and personalize the content and advertising you see.
Visit our Privacy Policy to learn more. By continuing to use the site, you agree to this use of cookies and data.
  • In Switzerland
  • List of Countries
  • For 7 days
  • Water Temperature
  • Weather Map
  • Weather Widgets
  • user-avatar
    Login

    Hourly Weather Metz

    Today, 12 December, Thursday

    Time Temperature Precipitation Wind Pressure Humidity
    00:00 +3°C° 0 mm 4 mps 739 mmHg 92%
    01:00 +3°C° 0.5 mm 4 mps 739 mmHg 94%
    02:00 +3°C° 0.5 mm 4 mps 739 mmHg 95%
    03:00 +3°C° 0.5 mm 3 mps 738 mmHg 97%
    04:00 +3°C° 0.3 mm 4 mps 739 mmHg 96%
    05:00 +3°C° 0.3 mm 4 mps 739 mmHg 95%
    06:00 +3°C° 0.3 mm 4 mps 739 mmHg 95%
    07:00 +3°C° 0 mm 4 mps 739 mmHg 93%
    08:00 +2°C° 0 mm 5 mps 739 mmHg 91%
    09:00 +2°C° 0 mm 5 mps 739 mmHg 89%
    10:00 +2°C° 0 mm 5 mps 739 mmHg 88%
    11:00 +2°C° 0 mm 5 mps 738 mmHg 87%
    12:00 +2°C° 0 mm 5 mps 738 mmHg 85%
    13:00 +2°C° 0 mm 6 mps 737 mmHg 84%
    14:00 +2°C° 0 mm 6 mps 736 mmHg 82%
    15:00 +2°C° 0 mm 6 mps 735 mmHg 81%
    16:00 +1°C° 0 mm 6 mps 734 mmHg 82%
    17:00 +1°C° 0 mm 6 mps 733 mmHg 83%
    18:00 +1°C° 0 mm 6 mps 732 mmHg 85%
    19:00 +1°C° 0.1 mm 6 mps 730 mmHg 82%
    20:00 +1°C° 0.1 mm 6 mps 729 mmHg 80%
    21:00 0°C° 0.1 mm 7 mps 727 mmHg 77%
    22:00 +2°C° 1.3 mm 7 mps 726 mmHg 82%
    23:00 +2°C° 1.3 mm 7 mps 725 mmHg 87%

    Tomorrow, 13 December, Friday

    Time Temperature Precipitation Wind Pressure Humidity
    00:00 +2°C° 1.3 mm 8 mps 724 mmHg 92%
    01:00 +2°C° 1.3 mm 8 mps 722 mmHg 92%
    02:00 +2°C° 1.3 mm 8 mps 721 mmHg 93%
    03:00 +4°C° 1.3 mm 8 mps 719 mmHg 93%
    04:00 +2°C° 1.2 mm 8 mps 719 mmHg 92%
    05:00 +2°C° 1.2 mm 8 mps 719 mmHg 91%
    06:00 +2°C° 1.2 mm 8 mps 719 mmHg 90%
    07:00 +2°C° 0.4 mm 8 mps 720 mmHg 88%
    08:00 +2°C° 0.4 mm 8 mps 721 mmHg 87%
    09:00 +2°C° 0.4 mm 8 mps 721 mmHg 86%
    10:00 +2°C° 0.3 mm 8 mps 722 mmHg 87%
    11:00 +2°C° 0.3 mm 8 mps 723 mmHg 89%
    12:00 +1°C° 0.3 mm 8 mps 724 mmHg 90%
    13:00 +2°C° 1.3 mm 9 mps 725 mmHg 91%
    14:00 +2°C° 1.3 mm 9 mps 725 mmHg 91%
    15:00 +2°C° 1.3 mm 9 mps 726 mmHg 92%
    16:00 +2°C° 0.1 mm 8 mps 727 mmHg 88%
    17:00 +2°C° 0.1 mm 8 mps 728 mmHg 85%
    18:00 +3°C° 0.1 mm 7 mps 730 mmHg 82%
    19:00 +2°C° 0 mm 7 mps 730 mmHg 83%
    20:00 +2°C° 0 mm 7 mps 731 mmHg 84%
    21:00 +2°C° 0 mm 7 mps 731 mmHg 85%
    22:00 +2°C° 0 mm 7 mps 732 mmHg 85%
    23:00 +2°C° 0 mm 7 mps 732 mmHg 86%

    Day after tomorrow, 14 December, Saturday

    Time Temperature Precipitation Wind Pressure Humidity
    00:00 +2°C° 0 mm 7 mps 732 mmHg 86%
    01:00 +2°C° 0.2 mm 7 mps 732 mmHg 88%
    02:00 +2°C° 0.2 mm 7 mps 731 mmHg 91%
    03:00 +2°C° 0.2 mm 7 mps 731 mmHg 93%
    04:00 +4°C° 0.7 mm 8 mps 731 mmHg 91%
    05:00 +5°C° 0.7 mm 9 mps 731 mmHg 89%
    06:00 +6°C° 0.7 mm 9 mps 731 mmHg 87%
    07:00 +6°C° 0.1 mm 9 mps 732 mmHg 84%
    08:00 +6°C° 0.1 mm 9 mps 733 mmHg 81%
    09:00 +5°C° 0.1 mm 9 mps 734 mmHg 78%
    10:00 +6°C° 0 mm 8 mps 734 mmHg 76%
    11:00 +6°C° 0 mm 7 mps 735 mmHg 73%
    12:00 +6°C° 0 mm 7 mps 735 mmHg 70%
    13:00 +7°C° 0 mm 6 mps 735 mmHg 74%
    14:00 +7°C° 0 mm 6 mps 735 mmHg 77%
    15:00 +7°C° 0 mm 5 mps 735 mmHg 80%
    16:00 +7°C° 0.1 mm 5 mps 736 mmHg 82%
    17:00 +7°C° 0.1 mm 5 mps 736 mmHg 85%
    18:00 +8°C° 0.1 mm 5 mps 736 mmHg 87%
    19:00 +7°C° 0.6 mm 5 mps 736 mmHg 89%
    20:00 +7°C° 0.6 mm 4 mps 736 mmHg 90%
    21:00 +8°C° 0.6 mm 3 mps 737 mmHg 92%
    22:00 +8°C° 1 mm 3 mps 736 mmHg 93%
    23:00 +7°C° 1 mm 4 mps 736 mmHg 94%

    15 December, Sunday

    Time Temperature Precipitation Wind Pressure Humidity
    00:00 +7°C° 1 mm 4 mps 736 mmHg 95%
    01:00 +8°C° 2.3 mm 6 mps 735 mmHg 93%
    02:00 +8°C° 2.3 mm 7 mps 735 mmHg 91%
    03:00 +8°C° 2.3 mm 9 mps 735 mmHg 90%
    04:00 +8°C° 0.6 mm 9 mps 735 mmHg 87%
    05:00 +8°C° 0.6 mm 9 mps 736 mmHg 85%
    06:00 +7°C° 0.6 mm 9 mps 736 mmHg 83%
    07:00 +7°C° 0.4 mm 9 mps 737 mmHg 82%
    08:00 +6°C° 0.4 mm 8 mps 738 mmHg 82%
    09:00 +6°C° 0.4 mm 8 mps 739 mmHg 81%
    10:00 +6°C° 0 mm 7 mps 740 mmHg 77%
    11:00 +6°C° 0 mm 7 mps 741 mmHg 73%
    12:00 +7°C° 0 mm 6 mps 742 mmHg 70%
    13:00 +7°C° 0 mm 5 mps 742 mmHg 73%
    14:00 +6°C° 0 mm 4 mps 742 mmHg 75%
    15:00 +6°C° 0 mm 4 mps 742 mmHg 78%
    16:00 +6°C° 0 mm 4 mps 742 mmHg 81%
    17:00 +5°C° 0 mm 4 mps 743 mmHg 84%
    18:00 +5°C° 0 mm 4 mps 743 mmHg 87%
    19:00 +5°C° 0 mm 4 mps 743 mmHg 88%
    20:00 +5°C° 0 mm 3 mps 743 mmHg 89%
    21:00 +5°C° 0 mm 3 mps 744 mmHg 90%
    22:00 +5°C° 0 mm 3 mps 744 mmHg 91%
    23:00 +5°C° 0 mm 3 mps 744 mmHg 91%

    16 December, Monday

    Time Temperature Precipitation Wind Pressure Humidity
    00:00 +7°C° 0 mm 3 mps 744 mmHg 91%
    01:00 +7°C° 0.4 mm 2 mps 743 mmHg 93%
    02:00 +7°C° 0.4 mm 2 mps 743 mmHg 94%
    03:00 +6°C° 0.4 mm 2 mps 743 mmHg 95%
    04:00 +6°C° 1 mm 2 mps 743 mmHg 96%
    05:00 +7°C° 1 mm 1 mps 743 mmHg 97%
    06:00 +7°C° 1 mm 1 mps 742 mmHg 97%
    07:00 +8°C° 1 mm 1 mps 742 mmHg 97%
    08:00 +7°C° 1 mm 2 mps 742 mmHg 97%
    09:00 +7°C° 1 mm 2 mps 742 mmHg 96%
    10:00 +7°C° 0.8 mm 2 mps 742 mmHg 96%
    11:00 +8°C° 0.8 mm 2 mps 741 mmHg 96%
    12:00 +8°C° 0.8 mm 2 mps 741 mmHg 96%
    13:00 +8°C° 0.5 mm 2 mps 741 mmHg 95%
    14:00 +8°C° 0.5 mm 2 mps 740 mmHg 93%
    15:00 +9°C° 0.5 mm 2 mps 740 mmHg 92%
    16:00 +9°C° 0 mm 3 mps 739 mmHg 89%
    17:00 +9°C° 0 mm 3 mps 739 mmHg 86%
    18:00 +9°C° 0 mm 3 mps 739 mmHg 83%
    19:00 +8°C° 0 mm 4 mps 739 mmHg 82%
    20:00 +8°C° 0 mm 4 mps 738 mmHg 80%
    21:00 +8°C° 0 mm 4 mps 738 mmHg 78%
    22:00 +8°C° 0 mm 4 mps 738 mmHg 79%
    23:00 +8°C° 0 mm 4 mps 738 mmHg 79%

    17 December, Tuesday

    Time Temperature Precipitation Wind Pressure Humidity
    00:00 +8°C° 0 mm 4 mps 738 mmHg 80%
    01:00 +8°C° 0 mm 4 mps 738 mmHg 79%
    02:00 +8°C° 0 mm 4 mps 738 mmHg 78%
    03:00 +7°C° 0 mm 4 mps 738 mmHg 77%
    04:00 +8°C° 0 mm 4 mps 738 mmHg 77%
    05:00 +8°C° 0 mm 4 mps 738 mmHg 78%
    06:00 +8°C° 0 mm 4 mps 738 mmHg 78%
    07:00 +10°C° 0.2 mm 4 mps 739 mmHg 80%
    08:00 +10°C° 0.2 mm 4 mps 739 mmHg 82%
    09:00 +10°C° 0.2 mm 5 mps 740 mmHg 84%
    10:00 +10°C° 0.7 mm 4 mps 740 mmHg 86%
    11:00 +10°C° 0.7 mm 4 mps 740 mmHg 89%
    12:00 +10°C° 0.7 mm 4 mps 740 mmHg 91%
    13:00 +10°C° 0.9 mm 3 mps 740 mmHg 93%
    14:00 +9°C° 0.9 mm 3 mps 741 mmHg 95%
    15:00 +9°C° 0.9 mm 2 mps 741 mmHg 96%
    16:00 +9°C° 1.5 mm 3 mps 742 mmHg 95%
    17:00 +9°C° 1.5 mm 3 mps 743 mmHg 94%
    18:00 +7°C° 1.5 mm 4 mps 744 mmHg 93%
    19:00 +8°C° 0 mm 3 mps 744 mmHg 93%
    20:00 +7°C° 0 mm 3 mps 745 mmHg 92%
    21:00 +7°C° 0 mm 3 mps 746 mmHg 92%
    22:00 +6°C° 0 mm 2 mps 747 mmHg 93%
    23:00 +6°C° 0 mm 2 mps 748 mmHg 93%
    Show more